ITY445 LIBD-LIRN

Flight info

Callsign ITY445
Flight time 0h 34m
Altitude 30000
Route TOPNO L995 EKTOL
Aircraft E190/M-SDE3GILORVW/S

Departure

Time 2026-04-28 16:52
Airport Bari Karol Wojtyła International Airport (LIBD)

Arrival

Time 2026-04-28 17:26
Airport Naples International Airport (LIRN)
Time Latitude Longitude Altitude Speed Heading
2026-04-28 16:26 41.13674 16.76384 135 ft 0 kts 22°
2026-04-28 16:40 41.13661 16.76377 135 ft 4 kts
2026-04-28 16:41 41.13638 16.76382 135 ft 4 kts 309°
2026-04-28 16:41 41.13628 16.76409 135 ft 4 kts 273°
2026-04-28 16:41 41.13628 16.76426 135 ft 4 kts 259°
2026-04-28 16:41 41.13629 16.76437 135 ft 2 kts 250°
2026-04-28 16:42 41.13630 16.76439 135 ft 3 kts 250°
2026-04-28 16:44 41.13629 16.76437 135 ft 1 kts 250°
2026-04-28 16:44 41.13624 16.76417 135 ft 4 kts 250°
2026-04-28 16:44 41.13611 16.76372 135 ft 6 kts 250°
2026-04-28 16:45 41.13592 16.76305 135 ft 9 kts 249°
2026-04-28 16:45 41.13567 16.76216 135 ft 12 kts 249°
2026-04-28 16:45 41.13563 16.76110 135 ft 12 kts 299°
2026-04-28 16:45 41.13632 16.76029 135 ft 13 kts 304°
2026-04-28 16:46 41.13622 16.75907 135 ft 15 kts 249°
2026-04-28 16:46 41.13584 16.75775 136 ft 16 kts 249°
2026-04-28 16:46 41.13542 16.75627 136 ft 18 kts 249°
2026-04-28 16:46 41.13498 16.75473 141 ft 17 kts 250°
2026-04-28 16:47 41.13453 16.75312 141 ft 20 kts 250°
2026-04-28 16:47 41.13404 16.75142 145 ft 19 kts 249°
2026-04-28 16:47 41.13356 16.74975 146 ft 20 kts 249°
2026-04-28 16:47 41.13316 16.74832 147 ft 17 kts 249°
2026-04-28 16:48 41.13274 16.74686 151 ft 16 kts 249°
2026-04-28 16:48 41.13232 16.74537 151 ft 18 kts 249°
2026-04-28 16:48 41.13187 16.74376 153 ft 19 kts 249°
2026-04-28 16:48 41.13176 16.74224 149 ft 14 kts 299°
2026-04-28 16:49 41.13196 16.74180 147 ft 0 kts 301°
2026-04-28 16:50 41.13209 16.74149 146 ft 7 kts 301°
2026-04-28 16:50 41.13262 16.74103 144 ft 11 kts 336°
2026-04-28 16:50 41.13305 16.74121 145 ft 0 kts 69°
2026-04-28 16:51 41.13305 16.74122 145 ft 1 kts 69°
2026-04-28 16:51 41.13345 16.74267 146 ft 43 kts 69°
2026-04-28 16:51 41.13541 16.74971 137 ft 120 kts 71°
2026-04-28 16:52 41.13903 16.76238 385 ft 166 kts 69°
2026-04-28 16:52 41.14404 16.77794 966 ft 207 kts 64°
2026-04-28 16:52 41.15417 16.79372 1733 ft 243 kts 47°
2026-04-28 16:52 41.16882 16.80903 1826 ft 297 kts 30°
2026-04-28 16:53 41.18741 16.81799 2788 ft 272 kts 15°
2026-04-28 16:53 41.20510 16.82459 4221 ft 259 kts 15°
2026-04-28 16:53 41.22302 16.83116 5054 ft 280 kts 14°
2026-04-28 16:53 41.24180 16.83705 6321 ft 275 kts
2026-04-28 16:54 41.25988 16.84579 7374 ft 279 kts 24°
2026-04-28 16:54 41.27824 16.85246 8331 ft 278 kts 358°
2026-04-28 16:54 41.29671 16.84590 9290 ft 277 kts 327°
2026-04-28 16:54 41.30621 16.83470 9923 ft 277 kts 306°
2026-04-28 16:55 41.31436 16.80163 10672 ft 299 kts 268°
2026-04-28 16:55 41.31021 16.77389 11241 ft 316 kts 253°
2026-04-28 16:55 41.30260 16.74573 11838 ft 331 kts 250°
2026-04-28 16:55 41.29707 16.71562 12569 ft 339 kts 264°
2026-04-28 16:56 41.29456 16.68403 13433 ft 347 kts 264°
2026-04-28 16:56 41.29136 16.65231 14365 ft 351 kts 263°
2026-04-28 16:56 41.28788 16.62001 15369 ft 354 kts 262°
2026-04-28 16:56 41.28416 16.58744 16394 ft 357 kts 262°
2026-04-28 16:57 41.28035 16.55460 17337 ft 360 kts 262°
2026-04-28 16:57 41.27644 16.52150 18196 ft 365 kts 262°
2026-04-28 16:57 41.27243 16.48786 18946 ft 370 kts 262°
2026-04-28 16:57 41.26840 16.45430 19701 ft 375 kts 262°
2026-04-28 16:58 41.26423 16.41978 20483 ft 379 kts 262°
2026-04-28 16:58 41.26000 16.38493 21203 ft 384 kts 262°
2026-04-28 16:58 41.25573 16.34973 21889 ft 388 kts 262°
2026-04-28 16:58 41.25139 16.31407 22537 ft 391 kts 262°
2026-04-28 16:59 41.24700 16.27809 23157 ft 395 kts 262°
2026-04-28 16:59 41.24262 16.24227 23717 ft 400 kts 262°
2026-04-28 16:59 41.23813 16.20555 24227 ft 404 kts 262°
2026-04-28 16:59 41.23358 16.16850 24783 ft 407 kts 262°
2026-04-28 17:00 41.22899 16.13125 25344 ft 410 kts 262°
2026-04-28 17:00 41.22436 16.09373 25884 ft 413 kts 262°
2026-04-28 17:00 41.21969 16.05586 26403 ft 416 kts 262°
2026-04-28 17:00 41.21498 16.01768 26870 ft 420 kts 262°
2026-04-28 17:01 41.21022 15.97931 27347 ft 422 kts 262°
2026-04-28 17:01 41.20547 15.94108 27850 ft 424 kts 262°
2026-04-28 17:01 41.20062 15.90216 28241 ft 428 kts 262°
2026-04-28 17:01 41.19573 15.86290 28640 ft 431 kts 262°
2026-04-28 17:02 41.19081 15.82354 29044 ft 434 kts 262°
2026-04-28 17:02 41.18747 15.79691 29416 ft 433 kts 262°
2026-04-28 17:02 41.18089 15.74460 30150 ft 430 kts 262°
2026-04-28 17:03 41.16631 15.62840 30055 ft 425 kts 262°
2026-04-28 17:03 41.16145 15.58925 29574 ft 429 kts 262°
2026-04-28 17:03 41.15655 15.55012 29135 ft 429 kts 262°
2026-04-28 17:04 41.14661 15.47182 28313 ft 430 kts 262°
2026-04-28 17:04 41.14163 15.43258 27918 ft 432 kts 262°
2026-04-28 17:05 41.13166 15.35422 27160 ft 434 kts 261°
2026-04-28 17:05 41.12660 15.31462 26768 ft 435 kts 262°
2026-04-28 17:05 41.12151 15.27502 26381 ft 435 kts 261°
2026-04-28 17:06 41.11126 15.19670 25630 ft 426 kts 260°
2026-04-28 17:06 41.10206 15.15934 25199 ft 428 kts 246°
2026-04-28 17:06 41.06515 15.09858 24236 ft 407 kts 228°
2026-04-28 17:07 41.04657 15.07220 23739 ft 380 kts 230°
2026-04-28 17:07 41.02877 15.04652 23074 ft 375 kts 229°
2026-04-28 17:07 41.01147 15.02140 22413 ft 370 kts 230°
2026-04-28 17:07 40.99435 14.99627 21761 ft 365 kts 230°
2026-04-28 17:08 40.97763 14.97117 21128 ft 360 kts 231°
2026-04-28 17:08 40.96134 14.94613 20501 ft 356 kts 231°
2026-04-28 17:08 40.94519 14.92155 19887 ft 353 kts 230°
2026-04-28 17:08 40.92918 14.89719 19279 ft 349 kts 230°
2026-04-28 17:09 40.91332 14.87306 18692 ft 346 kts 230°
2026-04-28 17:09 40.89759 14.84914 18078 ft 342 kts 230°
2026-04-28 17:09 40.88239 14.82507 17422 ft 338 kts 234°
2026-04-28 17:09 40.86964 14.79959 16792 ft 335 kts 239°
2026-04-28 17:10 40.85757 14.77335 16158 ft 329 kts 239°
2026-04-28 17:10 40.84575 14.74784 15528 ft 322 kts 240°
2026-04-28 17:10 40.83658 14.72140 14906 ft 314 kts 255°
2026-04-28 17:10 40.83395 14.69314 14297 ft 308 kts 272°
2026-04-28 17:11 40.83778 14.66588 13713 ft 306 kts 289°
2026-04-28 17:11 40.84804 14.64110 13064 ft 309 kts 307°
2026-04-28 17:11 40.86380 14.62176 12430 ft 311 kts 323°
2026-04-28 17:11 40.88319 14.60908 11800 ft 313 kts 342°
2026-04-28 17:12 40.90488 14.60535 11181 ft 314 kts
2026-04-28 17:12 40.92572 14.61131 10553 ft 301 kts 24°
2026-04-28 17:12 40.94291 14.62574 10078 ft 290 kts 43°
2026-04-28 17:12 40.95479 14.64657 9561 ft 288 kts 70°
2026-04-28 17:13 40.96028 14.67187 9070 ft 283 kts 76°
2026-04-28 17:13 40.96630 14.69574 9091 ft 268 kts 70°
2026-04-28 17:13 40.97288 14.71864 9109 ft 265 kts 70°
2026-04-28 17:13 40.98022 14.74114 9089 ft 267 kts 64°
2026-04-28 17:14 40.98970 14.76241 9084 ft 262 kts 59°
2026-04-28 17:14 40.99888 14.78202 9009 ft 245 kts 59°
2026-04-28 17:14 41.00784 14.80129 9024 ft 244 kts 60°
2026-04-28 17:14 41.01679 14.82024 9034 ft 242 kts 58°
2026-04-28 17:15 41.02761 14.83692 9041 ft 240 kts 40°
2026-04-28 17:15 41.03671 14.84507 9052 ft 239 kts 28°
2026-04-28 17:15 41.05228 14.85279 9056 ft 239 kts 12°
2026-04-28 17:15 41.06885 14.85365 9035 ft 239 kts 345°
2026-04-28 17:16 41.08447 14.84648 9070 ft 238 kts 338°
2026-04-28 17:16 41.09955 14.83746 9091 ft 236 kts 334°
2026-04-28 17:16 41.11445 14.82819 9093 ft 237 kts 333°
2026-04-28 17:16 41.12719 14.81437 8811 ft 240 kts 299°
2026-04-28 17:17 41.13124 14.79338 8419 ft 237 kts 261°
2026-04-28 17:17 41.12705 14.77274 8057 ft 235 kts 247°
2026-04-28 17:17 41.11972 14.75337 7684 ft 236 kts 236°
2026-04-28 17:17 41.10918 14.73662 7327 ft 236 kts 222°
2026-04-28 17:18 41.09561 14.72469 7020 ft 233 kts 202°
2026-04-28 17:18 41.08197 14.71507 7076 ft 221 kts 227°
2026-04-28 17:18 41.07468 14.69817 7164 ft 204 kts 245°
2026-04-28 17:18 41.06877 14.68163 7215 ft 195 kts 237°
2026-04-28 17:19 41.06120 14.66652 7150 ft 200 kts 235°
2026-04-28 17:19 41.05383 14.65084 6859 ft 204 kts 237°
2026-04-28 17:19 41.04667 14.63474 6546 ft 202 kts 237°
2026-04-28 17:19 41.03930 14.61909 6240 ft 199 kts 236°
2026-04-28 17:20 41.03207 14.60366 5944 ft 195 kts 237°
2026-04-28 17:20 41.02730 14.59337 5742 ft 194 kts 237°
2026-04-28 17:20 41.01814 14.57355 5348 ft 187 kts 237°
2026-04-28 17:20 41.01128 14.55883 5089 ft 188 kts 236°
2026-04-28 17:21 41.00441 14.54411 4828 ft 188 kts 236°
2026-04-28 17:21 40.99756 14.52938 4538 ft 187 kts 236°
2026-04-28 17:21 40.99078 14.51482 4255 ft 184 kts 236°
2026-04-28 17:22 40.97729 14.48586 3725 ft 186 kts 237°
2026-04-28 17:22 40.97053 14.47139 3455 ft 184 kts 237°
2026-04-28 17:22 40.96376 14.45685 3181 ft 186 kts 238°
2026-04-28 17:23 40.95039 14.42825 2662 ft 175 kts 238°
2026-04-28 17:23 40.94416 14.41493 2393 ft 166 kts 239°
2026-04-28 17:23 40.93830 14.40241 2139 ft 154 kts 239°
2026-04-28 17:23 40.93291 14.39085 1936 ft 144 kts 239°
2026-04-28 17:24 40.92774 14.37984 1714 ft 139 kts 239°
2026-04-28 17:24 40.92287 14.36939 1558 ft 129 kts 237°
2026-04-28 17:24 40.91817 14.35936 1350 ft 128 kts 236°
2026-04-28 17:24 40.91348 14.34936 1167 ft 128 kts 235°
2026-04-28 17:25 40.90878 14.33937 956 ft 125 kts 233°
2026-04-28 17:25 40.89992 14.31998 570 ft 119 kts 234°
2026-04-28 17:25 40.89567 14.31115 389 ft 115 kts 235°
2026-04-28 17:26 40.89143 14.30218 246 ft 111 kts 237°
2026-04-28 17:26 40.88754 14.29397 259 ft 121 kts 236°
2026-04-28 17:26 40.88377 14.28592 277 ft 68 kts 236°
2026-04-28 17:26 40.88142 14.28361 285 ft 19 kts 208°
2026-04-28 17:27 40.88111 14.28338 290 ft 0 kts 208°
2026-04-28 17:28 40.88106 14.28335 288 ft 2 kts 208°
2026-04-28 17:28 40.88067 14.28279 287 ft 5 kts 265°
2026-04-28 17:28 40.88064 14.28230 288 ft 6 kts 252°
2026-04-28 17:29 40.88042 14.28184 293 ft 6 kts 234°
2026-04-28 17:29 40.88013 14.28137 294 ft 7 kts 219°
2026-04-28 17:29 40.87970 14.28112 295 ft 7 kts 203°
2026-04-28 17:30 40.87892 14.28011 296 ft 8 kts 231°
2026-04-28 17:30 40.87809 14.27973 299 ft 8 kts 139°
2026-04-28 17:30 40.87776 14.28009 296 ft 3 kts 141°
2026-04-28 17:31 40.87775 14.28010 296 ft 0 kts 141°